START_TIME,STEP,MOV.,A46,t_acc.,A13,t_acc.,M47,t_acc.,A17,t_acc.,A28,t_acc.,M38,t_acc.
1981-08-26 09:00:26.390 ,3,0,,0,0.,4.8,0.,4.8,,0,0.,4.8,0.,4.8
1981-08-26 09:00:31.190 ,3,0,,0,0.,4.8,0.,4.8,,0,0.,4.8,0.,4.8
1981-08-26 09:00:35.990 ,3,0,,0,0.,4.8,0.,4.8,,0,0.,4.8,0.,4.8
1981-08-26 09:00:40.790 ,3,0,,0,0.,4.8,0.,4.8,,0,0.,4.8,0.,4.8
1981-08-26 09:00:45.590 ,3,0,,0,0.,4.8,0.,4.8,,0,0.,4.8,0.,4.8
1981-08-26 09:00:50.390 ,4,0,,0,0.,4.8,0.,4.8,,0,0.,4.8,0.,4.8
1981-08-26 09:00:55.190 ,4,0,,0,0.,4.8,0.,4.8,,0,0.,4.8,0.,4.8
1981-08-26 09:00:59.990 ,4,0,,0,0.,4.8,0.,4.8,,0,0.,4.8,0.,4.8
1981-08-26 09:01:04.790 ,4,0,,0,0.,4.8,0.,4.8,,0,0.,4.8,0.,4.8
1981-08-26 09:01:09.590 ,4,0,,0,0.,4.8,0.,4.8,,0,0.,4.8,0.,4.8
1981-08-26 09:01:14.390 ,5,0,,0,0.,4.8,0.,4.8,,0,0.,4.8,0.,4.8
1981-08-26 09:01:19.190 ,5,0,,0,0.,4.8,0.,4.8,,0,0.,4.8,0.,4.8
1981-08-26 09:01:23.990 ,5,0,,0,0.,4.8,0.,4.8,,0,0.,4.8,0.,4.8
1981-08-26 09:01:28.790 ,5,0,,0,0.,4.8,0.,4.8,,0,0.,4.8,0.,4.8
1981-08-26 09:01:33.590 ,5,0,,0,0.,4.8,0.,4.8,,0,0.,4.8,0.,4.8
1981-08-26 09:01:38.390 ,6,0,,0,0.,4.8,0.,4.8,,0,0.,4.8,0.,4.8
1981-08-26 09:01:43.190 ,6,0,,0,0.,4.8,0.,4.8,,0,0.,4.8,0.,4.8
1981-08-26 09:01:47.990 ,6,0,,0,0.,4.8,0.,4.8,,0,0.,4.8,0.,4.8
1981-08-26 09:01:52.790 ,6,0,,0,0.,4.8,0.,4.8,,0,0.,4.8,0.,4.8
1981-08-26 09:01:57.590 ,6,0,,0,0.,4.8,0.,4.8,,0,0.,4.8,0.,4.8
1981-08-26 09:02:02.390 ,7,0,,0,0.,4.8,0.,4.8,,0,0.,4.8,0.,4.8
1981-08-26 09:02:07.190 ,7,0,,0,0.,4.8,0.,4.8,,0,0.,4.8,0.,4.8
1981-08-26 09:02:11.990 ,7,0,,0,0.,4.8,0.,4.8,,0,0.,4.8,0.,4.8
1981-08-26 09:02:16.790 ,7,0,,0,0.,4.8,0.,4.8,,0,0.,4.8,0.,4.8
1981-08-26 09:02:21.590 ,7,0,,0,0.,4.8,0.,4.8,,0,0.,4.8,0.,4.8
1981-08-26 09:02:26.390 ,7,0,,0,0.,4.8,0.,4.8,,0,0.,4.8,0.,4.8
1981-08-26 09:02:31.190 ,7,0,,0,0.,4.8,0.,4.8,,0,0.,4.8,0.,4.8
1981-08-26 09:02:35.990 ,7,0,,0,0.,4.8,0.,4.8,,0,0.,4.8,0.,4.8
1981-08-26 09:02:40.790 ,7,0,,0,0.,4.8,0.,4.8,,0,0.,4.8,0.,4.8
1981-08-26 09:02:45.590 ,7,0,,0,0.,4.8,0.,4.8,,0,0.,4.8,0.,4.8
1981-08-26 09:02:50.390 ,6,0,,0,0.,4.8,0.,4.8,,0,0.,4.8,0.,4.8
1981-08-26 09:02:55.190 ,6,0,,0,0.,4.8,0.,4.8,,0,0.,4.8,0.,4.8
1981-08-26 09:02:59.990 ,6,0,,0,0.,4.8,0.,4.8,,0,0.,4.8,0.,4.8
1981-08-26 09:03:04.790 ,6,0,,0,0.,4.8,0.,4.8,,0,0.,4.8,0.,4.8
1981-08-26 09:03:09.590 ,6,0,,0,0.,4.8,0.,4.8,,0,0.,4.8,0.,4.8
1981-08-26 09:03:14.390 ,5,0,,0,0.,4.8,0.,4.8,,0,0.,4.8,0.,4.8
1981-08-26 09:03:19.190 ,5,0,,0,0.,4.8,0.,4.8,,0,0.,4.8,0.,4.8
1981-08-26 09:03:23.990 ,5,0,,0,0.,4.8,0.,4.8,,0,0.,4.8,0.,4.8
1981-08-26 09:03:28.790 ,5,0,,0,0.,4.8,0.,4.8,,0,0.,4.8,0.,4.8
1981-08-26 09:03:33.590 ,5,0,,0,0.,4.8,0.,4.8,,0,0.,4.8,0.,4.8
1981-08-26 09:03:38.390 ,4,0,,0,0.,4.8,0.,4.8,,0,0.,4.8,0.,4.8
1981-08-26 09:03:43.190 ,4,0,,0,0.,4.8,0.,4.8,,0,0.,4.8,0.,4.8
1981-08-26 09:03:47.990 ,4,0,,0,0.,4.8,0.,4.8,,0,0.,4.8,0.,4.8
1981-08-26 09:03:52.790 ,4,0,,0,0.,4.8,0.,4.8,,0,0.,4.8,0.,4.8
1981-08-26 09:03:57.590 ,4,0,,0,0.,4.8,0.,4.8,,0,0.,4.8,0.,4.8
1981-08-26 09:04:02.390 ,3,0,,0,0.,4.8,0.,4.8,,0,0.,4.8,0.,4.8
1981-08-26 09:04:07.190 ,3,0,,0,0.,4.8,0.,4.8,,0,0.,4.8,0.,4.8
1981-08-26 09:04:11.990 ,3,0,,0,0.,4.8,0.,4.8,,0,0.,4.8,0.,4.8
1981-08-26 09:04:16.790 ,3,0,,0,0.,4.8,0.,4.8,,0,0.,4.8,0.,4.8
1981-08-26 09:04:21.590 ,3,0,,0,0.,4.8,0.,4.8,,0,0.,4.8,0.,4.8
1981-08-26 09:04:26.390 ,2,0,,0,0.,4.8,0.,4.8,,0,0.,4.8,0.,4.8
1981-08-26 09:04:31.190 ,2,0,,0,0.,4.8,0.,4.8,,0,0.,4.8,0.,4.8
1981-08-26 09:04:35.990 ,2,0,,0,0.,4.8,0.,4.8,,0,0.,4.8,0.,4.8
1981-08-26 09:04:40.790 ,2,0,,0,0.,4.8,0.,4.8,,0,0.,4.8,0.,4.8
1981-08-26 09:04:45.590 ,2,0,,0,0.,4.8,0.,4.8,,0,0.,4.8,0.,4.8
1981-08-26 09:04:50.390 ,1,0,,0,0.,4.8,0.,4.8,,0,0.,4.8,0.,4.8
1981-08-26 09:04:55.190 ,1,0,,0,0.,4.8,0.,4.8,,0,0.,4.8,0.,4.8
1981-08-26 09:04:59.990 ,1,0,,0,0.,4.8,0.,4.8,,0,0.,4.8,0.,4.8
1981-08-26 09:05:04.790 ,1,0,,0,0.,4.8,0.,4.8,,0,0.,4.8,0.,4.8
1981-08-26 09:05:09.590 ,1,0,,0,0.,4.8,0.,4.8,,0,0.,4.8,0.,4.8
1981-08-26 09:05:14.390 ,0,0,,0,0.,4.8,0.,4.8,,0,0.,4.8,0.,4.8
1981-08-26 09:05:19.190 ,0,0,,0,0.,4.8,0.,4.8,,0,0.,4.8,0.,4.8
1981-08-26 09:05:23.990 ,0,0,,0,0.,4.8,0.,4.8,,0,0.,4.8,0.,4.8
1981-08-26 09:05:28.790 ,0,0,,0,0.,4.8,0.,4.8,,0,0.,4.8,0.,4.8
1981-08-26 09:05:33.590 ,0,0,,0,0.,4.8,0.,4.8,,0,0.,4.8,0.,4.8
1981-08-26 09:05:38.390 ,0,0,,0,0.,4.8,0.,4.8,,0,0.,4.8,0.,4.8
1981-08-26 09:05:43.190 ,0,0,,0,0.,4.8,0.,4.8,,0,0.,4.8,0.,4.8
1981-08-26 09:05:47.990 ,0,0,,0,0.,4.8,0.,4.8,,0,0.,4.8,0.,4.8
1981-08-26 09:05:52.790 ,0,0,,0,0.,4.8,0.,4.8,,0,0.,4.8,0.,4.8
1981-08-26 09:05:57.590 ,0,0,,0,0.,4.8,0.,4.8,,0,0.,4.8,0.,4.8
1981-08-26 09:06:02.390 ,1,0,,0,0.,4.8,0.,4.8,,0,0.,4.8,0.,4.8
1981-08-26 09:06:07.190 ,1,0,,0,0.,4.8,0.,4.8,,0,0.,4.8,0.,4.8
1981-08-26 09:06:11.990 ,1,0,,0,0.,4.8,0.,4.8,,0,0.,4.8,0.,4.8
1981-08-26 09:06:16.790 ,1,0,,0,0.,4.8,0.,4.8,,0,0.,4.8,0.,4.8
1981-08-26 09:06:21.590 ,1,0,,0,0.,4.8,0.,4.8,,0,0.,4.8,0.,4.8
1981-08-26 09:07:14.390 ,0,0,,0,0.,4.8,0.,4.8,,0,0.,4.8,0.,4.8
1981-08-26 09:07:19.190 ,0,0,,0,0.,4.8,0.,4.8,,0,0.,4.8,0.,4.8
1981-08-26 09:07:23.990 ,0,0,,0,0.,4.8,0.,4.8,,0,0.,4.8,0.,4.8
1981-08-26 09:07:28.790 ,0,0,,0,0.,4.8,0.,4.8,,0,0.,4.8,0.,4.8
1981-08-26 09:07:33.590 ,0,0,,0,0.,4.8,0.,4.8,,0,0.,4.8,0.,4.8
1981-08-26 09:07:38.390 ,5,0,,0,0.,4.8,0.,4.8,,0,0.,4.8,0.,4.8
1981-08-26 09:07:43.190 ,5,0,,0,0.,4.8,0.,4.8,,0,0.,4.8,0.,4.8
1981-08-26 09:07:47.990 ,5,0,,0,0.,4.8,0.,4.8,,0,0.,4.8,0.,4.8
1981-08-26 09:07:52.790 ,5,0,,0,0.,4.8,0.,4.8,,0,0.,4.8,0.,4.8
1981-08-26 09:07:57.590 ,5,0,,0,0.,4.8,0.,4.8,,0,0.,4.8,0.,4.8
1981-08-26 09:08:02.390 ,6,0,,0,0.,4.8,0.,4.8,,0,0.,4.8,0.,4.8
1981-08-26 09:08:07.190 ,6,0,,0,0.,4.8,0.,4.8,,0,0.,4.8,0.,4.8
1981-08-26 09:08:11.990 ,6,0,,0,0.,4.8,0.,4.8,,0,0.,4.8,0.,4.8
1981-08-26 09:08:16.790 ,6,0,,0,0.,4.8,0.,4.8,,0,0.,4.8,0.,4.8
1981-08-26 09:08:21.590 ,6,0,,0,0.,4.8,0.,4.8,,0,0.,4.8,0.,4.8
1981-08-26 09:08:26.390 ,7,0,,0,0.,4.8,0.,4.8,,0,0.,4.8,0.,4.8
1981-08-26 09:08:31.190 ,7,0,,0,0.,4.8,0.,4.8,,0,0.,4.8,0.,4.8
1981-08-26 09:08:35.990 ,7,0,,0,0.,4.8,0.,4.8,,0,0.,4.8,0.,4.8
1981-08-26 09:08:40.790 ,7,0,,0,0.,4.8,0.,4.8,,0,0.,4.8,0.,4.8
1981-08-26 09:08:45.590 ,7,0,,0,0.,4.8,0.,4.8,,0,0.,4.8,0.,4.8
1981-08-26 09:08:50.390 ,7,0,,0,0.,4.8,0.,4.8,,0,0.,4.8,0.,4.8
1981-08-26 09:08:55.190 ,7,0,,0,0.,4.8,0.,4.8,,0,0.,4.8,0.,4.8
1981-08-26 09:08:59.990 ,7,0,,0,0.,4.8,0.,4.8,,0,0.,4.8,0.,4.8
1981-08-26 09:09:04.790 ,7,0,,0,0.,4.8,0.,4.8,,0,0.,4.8,0.,4.8
1981-08-26 09:09:09.590 ,7,0,,0,0.,4.8,0.,4.8,,0,0.,4.8,0.,4.8
1981-08-26 09:09:14.390 ,6,0,,0,0.,4.8,0.,4.8,,0,0.,4.8,0.,4.8
1981-08-26 09:09:19.190 ,6,0,,0,0.,4.8,0.,4.8,,0,0.,4.8,0.,4.8
1981-08-26 09:09:23.990 ,6,0,,0,0.,4.8,0.,4.8,,0,0.,4.8,0.,4.8
1981-08-26 09:09:28.790 ,6,0,,0,0.,4.8,0.,4.8,,0,0.,4.8,0.,4.8
1981-08-26 09:09:33.590 ,6,0,,0,0.,4.8,0.,4.8,,0,0.,4.8,0.,4.8
1981-08-26 09:09:38.390 ,5,0,,0,0.,4.8,0.,4.8,,0,0.,4.8,0.,4.8
1981-08-26 09:09:43.190 ,5,0,,0,0.,4.8,0.,4.8,,0,0.,4.8,0.,4.8
1981-08-26 09:09:47.990 ,5,0,,0,0.,4.8,0.,4.8,,0,0.,4.8,0.,4.8
1981-08-26 09:09:52.790 ,5,0,,0,0.,4.8,0.,4.8,,0,0.,4.8,0.,4.8
1981-08-26 09:09:57.590 ,5,0,,0,0.,4.8,0.,4.8,,0,0.,4.8,0.,4.8
1981-08-26 09:10:02.390 ,4,0,,0,0.,4.8,0.,4.8,,0,0.,4.8,0.,4.8
1981-08-26 09:10:07.190 ,4,0,,0,0.,4.8,0.,4.8,,0,0.,4.8,0.,4.8
1981-08-26 09:10:11.990 ,4,0,,0,0.,4.8,0.,4.8,,0,0.,4.8,0.,4.8
1981-08-26 09:10:16.790 ,4,0,,0,0.,4.8,0.,4.8,,0,0.,4.8,0.,4.8
1981-08-26 09:10:21.590 ,4,0,,0,0.,4.8,0.,4.8,,0,0.,4.8,0.,4.8
1981-08-26 09:10:26.390 ,3,0,,0,0.,4.8,0.,4.8,,0,0.,4.8,0.,4.8
1981-08-26 09:10:31.190 ,3,0,,0,0.,4.8,0.,4.8,,0,0.,4.8,0.,4.8
1981-08-26 09:10:35.990 ,3,0,,0,0.,4.8,0.,4.8,,0,0.,4.8,0.,4.8
1981-08-26 09:10:40.790 ,3,0,,0,0.,4.8,0.,4.8,,0,0.,4.8,0.,4.8
1981-08-26 09:10:45.590 ,3,0,,0,0.,4.8,0.,4.8,,0,0.,4.8,0.,4.8
1981-08-26 09:10:50.390 ,2,0,,0,0.,4.8,0.,4.8,,0,0.,4.8,0.,4.8
1981-08-26 09:10:55.190 ,2,0,,0,0.,4.8,0.,4.8,,0,0.,4.8,0.,4.8
1981-08-26 09:10:59.990 ,2,0,,0,0.,4.8,0.,4.8,,0,0.,4.8,0.,4.8
1981-08-26 09:11:04.790 ,2,0,,0,0.,4.8,0.,4.8,,0,0.,4.8,0.,4.8
1981-08-26 09:11:09.590 ,2,0,,0,0.,4.8,0.,4.8,,0,0.,4.8,0.,4.8
1981-08-26 09:11:14.390 ,1,0,,0,0.,4.8,0.,4.8,,0,0.,4.8,0.,4.8
1981-08-26 09:11:19.190 ,1,0,,0,0.,4.8,0.,4.8,,0,0.,4.8,0.,4.8
1981-08-26 09:11:23.990 ,1,0,,0,0.,4.8,0.,4.8,,0,0.,4.8,0.,4.8
1981-08-26 09:11:28.790 ,1,0,,0,0.,4.8,0.,4.8,,0,0.,4.8,0.,4.8
1981-08-26 09:11:33.590 ,1,0,,0,0.,4.8,0.,4.8,,0,0.,4.8,0.,4.8
1981-08-26 09:11:38.390 ,0,0,,0,0.,4.8,0.,4.8,,0,0.,4.8,0.,4.8
1981-08-26 09:11:43.190 ,0,0,,0,0.,4.8,0.,4.8,,0,0.,4.8,0.,4.8
1981-08-26 09:11:47.990 ,0,0,,0,0.,4.8,0.,4.8,,0,0.,4.8,0.,4.8
1981-08-26 09:11:52.790 ,0,0,,0,0.,4.8,0.,4.8,,0,0.,4.8,0.,4.8
1981-08-26 09:11:57.590 ,0,0,,0,0.,4.8,0.,4.8,,0,0.,4.8,0.,4.8
1981-08-26 09:12:02.390 ,0,0,,0,0.,4.8,0.,4.8,,0,0.,4.8,0.,4.8
1981-08-26 09:12:07.190 ,0,0,,0,0.,4.8,0.,4.8,,0,0.,4.8,0.,4.8
1981-08-26 09:12:11.990 ,0,0,,0,0.,4.8,0.,4.8,,0,0.,4.8,0.,4.8
1981-08-26 09:12:16.790 ,0,0,,0,0.,4.8,0.,4.8,,0,0.,4.8,0.,4.8
1981-08-26 09:12:21.590 ,0,0,,0,0.,4.8,0.,4.8,,0,0.,4.8,0.,4.8
1981-08-26 09:12:26.390 ,1,0,,0,0.,4.8,0.,4.8,,0,0.,4.8,0.,4.8
1981-08-26 09:12:31.190 ,1,0,,0,0.,4.8,0.,4.8,,0,0.,4.8,0.,4.8
1981-08-26 09:12:35.990 ,1,0,,0,0.,4.8,0.,4.8,,0,0.,4.8,0.,4.8
1981-08-26 09:12:40.790 ,1,0,,0,0.,4.8,0.,4.8,,0,0.,4.8,0.,4.8
1981-08-26 09:12:45.590 ,1,0,,0,0.,4.8,0.,4.8,,0,0.,4.8,0.,4.8
1981-08-26 09:12:50.390 ,2,0,,0,0.,4.8,0.,4.8,,0,0.,4.8,0.,4.8
1981-08-26 09:12:55.190 ,2,0,,0,0.,4.8,0.,4.8,,0,0.,4.8,0.,4.8
1981-08-26 09:12:59.990 ,2,0,,0,0.,4.8,0.,4.8,,0,0.,4.8,0.,4.8
1981-08-26 09:13:04.790 ,2,0,,0,0.,4.8,0.,4.8,,0,0.,4.8,0.,4.8
1981-08-26 09:13:09.590 ,2,0,,0,0.,4.8,0.,4.8,,0,0.,4.8,0.,4.8
1981-08-26 09:13:14.390 ,3,0,,0,0.,4.8,0.,4.8,,0,0.,4.8,0.,4.8
1981-08-26 09:13:19.190 ,3,0,,0,0.,4.8,0.,4.8,,0,0.,4.8,0.,4.8
1981-08-26 09:13:23.990 ,3,0,,0,0.,4.8,0.,4.8,,0,0.,4.8,0.,4.8
1981-08-26 09:13:28.790 ,3,0,,0,0.,4.8,0.,4.8,,0,0.,4.8,0.,4.8
1981-08-26 09:13:33.590 ,3,0,,0,0.,4.8,0.,4.8,,0,0.,4.8,0.,4.8
1981-08-26 09:13:38.390 ,4,0,,0,0.,4.8,0.,4.8,,0,0.,4.8,0.,4.8
1981-08-26 09:13:43.190 ,4,0,,0,0.,4.8,0.,4.8,,0,0.,4.8,0.,4.8
1981-08-26 09:13:47.990 ,4,0,,0,0.,4.8,0.,4.8,,0,0.,4.8,0.,4.8
1981-08-26 09:13:52.790 ,4,0,,0,0.,4.8,0.,4.8,,0,0.,4.8,0.,4.8
1981-08-26 09:13:57.590 ,4,0,,0,0.,4.8,0.,4.8,,0,0.,4.8,0.,4.8
1981-08-26 09:14:02.390 ,5,0,,0,0.,4.8,0.,4.8,,0,0.,4.8,0.,4.8
1981-08-26 09:14:07.190 ,5,0,,0,0.,4.8,0.,4.8,,0,0.,4.8,0.,4.8
1981-08-26 09:14:11.990 ,5,0,,0,0.,4.8,0.,4.8,,0,0.,4.8,0.,4.8
1981-08-26 09:14:16.790 ,5,0,,0,0.,4.8,0.,4.8,,0,0.,4.8,0.,4.8
1981-08-26 09:14:21.590 ,5,0,,0,0.,4.8,0.,4.8,,0,0.,4.8,0.,4.8
1981-08-26 09:14:26.390 ,6,0,,0,0.,4.8,0.,4.8,,0,0.,4.8,0.,4.8
1981-08-26 09:14:31.190 ,6,0,,0,0.,4.8,0.,4.8,,0,0.,4.8,0.,4.8
1981-08-26 09:14:35.990 ,6,0,,0,0.,4.8,0.,4.8,,0,0.,4.8,0.,4.8
1981-08-26 09:14:40.790 ,6,0,,0,0.,4.8,0.,4.8,,0,0.,4.8,0.,4.8
1981-08-26 09:14:45.590 ,6,0,,0,0.,4.8,0.,4.8,,0,0.,4.8,0.,4.8
1981-08-26 09:14:50.390 ,7,0,,0,0.,4.8,0.,4.8,,0,0.,4.8,0.,4.8
1981-08-26 09:14:55.190 ,7,0,,0,0.,4.8,0.,4.8,,0,0.,4.8,0.,4.8
1981-08-26 09:14:59.990 ,7,0,,0,0.,4.8,0.,4.8,,0,0.,4.8,0.,4.8
1981-08-26 09:15:04.790 ,7,0,,0,0.,4.8,0.,4.8,,0,0.,4.8,0.,4.8
1981-08-26 09:15:09.590 ,7,0,,0,0.,4.8,0.,4.8,,0,0.,4.8,0.,4.8
1981-08-26 09:15:14.390 ,7,0,,0,0.,4.8,0.,4.8,,0,0.,4.8,0.,4.8
1981-08-26 09:15:19.190 ,7,0,,0,0.,4.8,0.,4.8,,0,0.,4.8,0.,4.8
1981-08-26 09:15:23.990 ,7,0,,0,0.,4.8,0.,4.8,,0,0.,4.8,0.,4.8
1981-08-26 09:15:28.790 ,7,0,,0,0.,4.8,0.,4.8,,0,0.,4.8,0.,4.8
1981-08-26 09:15:33.590 ,7,0,,0,0.,4.8,0.,4.8,,0,0.,4.8,0.,4.8
1981-08-26 09:15:38.390 ,6,0,,0,0.,4.8,0.,4.8,,0,0.,4.8,0.,4.8
1981-08-26 09:15:43.190 ,6,0,,0,0.,4.8,0.,4.8,,0,0.,4.8,0.,4.8
1981-08-26 09:15:47.990 ,6,0,,0,0.,4.8,0.,4.8,,0,0.,4.8,0.,4.8
1981-08-26 09:15:52.790 ,6,0,,0,0.,4.8,0.,4.8,,0,0.,4.8,0.,4.8
1981-08-26 09:15:57.590 ,6,0,,0,0.,4.8,0.,4.8,,0,0.,4.8,0.,4.8
1981-08-26 09:16:02.390 ,0,0,,0,0.,4.8,0.,4.8,,0,0.,4.8,0.,4.8
1981-08-26 09:16:07.190 ,0,0,,0,0.,4.8,0.,4.8,,0,0.,4.8,0.,4.8
1981-08-26 09:16:11.990 ,0,0,,0,0.,4.8,0.,4.8,,0,0.,4.8,0.,4.8
1981-08-26 09:16:16.790 ,0,0,,0,0.,4.8,0.,4.8,,0,0.,4.8,0.,4.8
1981-08-26 09:16:21.590 ,0,0,,0,0.,4.8,0.,4.8,,0,0.,4.8,0.,4.8
1981-08-26 09:16:26.390 ,0,0,,0,,0,,0,,0,,0,,0
1981-08-26 09:16:31.190 ,0,0,,0,,0,,0,,0,,0,,0
1981-08-26 09:16:35.990 ,0,0,,0,,0,,0,,0,,0,,0
1981-08-26 09:16:40.790 ,0,0,,0,,0,,0,,0,,0,,0
1981-08-26 09:16:45.590 ,0,0,,0,,0,,0,,0,,0,,0
1981-08-26 09:16:54.590 ,0,0,,0,,0,,0,,0,,0,,0
1981-08-26 09:16:59.390 ,0,0,,0,0.,4.8,0.,4.8,,0,0.,4.8,0.,4.8
1981-08-26 09:17:04.190 ,0,0,,0,0.,4.8,0.,4.8,,0,0.,4.8,0.,4.8
1981-08-26 09:17:08.990 ,0,0,,0,0.,4.8,0.,4.8,,0,0.,4.8,0.,4.8
1981-08-26 09:17:13.790 ,0,0,,0,0.,4.8,0.,4.8,,0,0.,4.8,0.,4.8
1981-08-26 09:17:14.390 ,2,0,,0,0.,4.8,0.,4.8,,0,0.,4.8,0.,4.8
1981-08-26 09:17:19.190 ,2,0,,0,0.,4.8,0.,4.8,,0,0.,4.8,0.,4.8
1981-08-26 09:17:23.990 ,2,0,,0,0.,4.8,0.,4.8,,0,0.,4.8,0.,4.8
1981-08-26 09:17:28.790 ,2,0,,0,0.,4.8,0.,4.8,,0,0.,4.8,0.,4.8
1981-08-26 09:17:33.590 ,2,0,,0,0.,4.8,0.,4.8,,0,0.,4.8,0.,4.8
1981-08-26 09:17:38.390 ,1,0,,0,0.,4.8,0.,4.8,,0,0.,4.8,0.,4.8
1981-08-26 09:17:43.190 ,1,0,,0,0.,4.8,0.,4.8,,0,0.,4.8,0.,4.8
1981-08-26 09:17:47.990 ,1,0,,0,0.,4.8,0.,4.8,,0,0.,4.8,0.,4.8
1981-08-26 09:17:52.790 ,1,0,,0,0.,4.8,0.,4.8,,0,0.,4.8,0.,4.8
1981-08-26 09:17:57.590 ,1,0,,0,0.,4.8,0.,4.8,,0,0.,4.8,0.,4.8
1981-08-26 09:18:02.390 ,0,0,,0,0.,4.8,0.,4.8,,0,0.,4.8,0.,4.8
1981-08-26 09:18:07.190 ,0,0,,0,0.,4.8,0.,4.8,,0,0.,4.8,0.,4.8
1981-08-26 09:18:11.990 ,0,0,,0,0.,4.8,0.,4.8,,0,0.,4.8,0.,4.8
1981-08-26 09:18:16.790 ,0,0,,0,0.,4.8,0.,4.8,,0,0.,4.8,0.,4.8
1981-08-26 09:18:21.590 ,0,0,,0,0.,4.8,0.,4.8,,0,0.,4.8,0.,4.8
1981-08-26 09:18:26.390 ,0,0,,0,0.,4.8,0.,4.8,,0,0.,4.8,0.,4.8
1981-08-26 09:18:31.190 ,0,0,,0,0.,4.8,0.,4.8,,0,0.,4.8,0.,4.8
1981-08-26 09:18:35.990 ,0,0,,0,0.,4.8,0.,4.8,,0,0.,4.8,0.,4.8
1981-08-26 09:18:40.790 ,0,0,,0,0.,4.8,0.,4.8,,0,0.,4.8,0.,4.8
1981-08-26 09:18:45.590 ,0,0,,0,0.,4.8,0.,4.8,,0,0.,4.8,0.,4.8
1981-08-26 09:18:50.390 ,1,0,,0,0.,4.8,0.,4.8,,0,0.,4.8,0.,4.8
1981-08-26 09:18:55.190 ,1,0,,0,0.,4.8,0.,4.8,,0,0.,4.8,0.,4.8
1981-08-26 09:18:59.990 ,1,0,,0,0.,4.8,0.,4.8,,0,0.,4.8,0.,4.8
1981-08-26 09:19:04.790 ,1,0,,0,0.,4.8,0.,4.8,,0,0.,4.8,0.,4.8
1981-08-26 09:19:09.590 ,1,0,,0,0.,4.8,0.,4.8,,0,0.,4.8,0.,4.8
1981-08-26 09:19:14.390 ,2,0,,0,0.,4.8,0.,4.8,,0,0.,4.8,0.,4.8
1981-08-26 09:19:19.190 ,2,0,,0,0.,4.8,0.,4.8,,0,0.,4.8,0.,4.8
1981-08-26 09:19:23.990 ,2,0,,0,0.,4.8,0.,4.8,,0,0.,4.8,0.,4.8
1981-08-26 09:19:28.790 ,2,0,,0,0.,4.8,0.,4.8,,0,0.,4.8,0.,4.8
1981-08-26 09:19:33.590 ,2,0,,0,0.,4.8,0.,4.8,,0,0.,4.8,0.,4.8
1981-08-26 09:19:38.390 ,3,0,,0,0.,4.8,0.,4.8,,0,0.,4.8,0.,4.8
1981-08-26 09:19:43.190 ,3,0,,0,0.,4.8,0.,4.8,,0,0.,4.8,0.,4.8
1981-08-26 09:19:47.990 ,3,0,,0,0.,4.8,0.,4.8,,0,0.,4.8,0.,4.8
1981-08-26 09:19:52.790 ,3,0,,0,0.,4.8,0.,4.8,,0,0.,4.8,0.,4.8
1981-08-26 09:19:57.590 ,3,0,,0,0.,4.8,0.,4.8,,0,0.,4.8,0.,4.8
1981-08-26 09:20:02.390 ,4,0,,0,0.,4.8,0.,4.8,,0,0.,4.8,0.,4.8
1981-08-26 09:20:07.190 ,4,0,,0,0.,4.8,0.,4.8,,0,0.,4.8,0.,4.8
1981-08-26 09:20:11.990 ,4,0,,0,0.,4.8,0.,4.8,,0,0.,4.8,0.,4.8
1981-08-26 09:20:16.790 ,4,0,,0,0.,4.8,0.,4.8,,0,0.,4.8,0.,4.8
1981-08-26 09:20:21.590 ,4,0,,0,0.,4.8,0.,4.8,,0,0.,4.8,0.,4.8
1981-08-26 09:20:26.390 ,5,0,,0,0.,4.8,0.,4.8,,0,0.,4.8,0.,4.8
1981-08-26 09:20:31.190 ,5,0,,0,0.,4.8,0.,4.8,,0,0.,4.8,0.,4.8
1981-08-26 09:20:35.990 ,5,0,,0,0.,4.8,0.,4.8,,0,0.,4.8,0.,4.8
1981-08-26 09:20:40.790 ,5,0,,0,0.,4.8,0.,4.8,,0,0.,4.8,0.,4.8
1981-08-26 09:20:45.590 ,5,0,,0,0.,4.8,0.,4.8,,0,0.,4.8,0.,4.8
1981-08-26 09:20:50.390 ,6,0,,0,0.,4.8,0.,4.8,,0,0.,4.8,0.,4.8
1981-08-26 09:20:55.190 ,6,0,,0,0.,4.8,0.,4.8,,0,0.,4.8,0.,4.8
1981-08-26 09:20:59.990 ,6,0,,0,0.,4.8,0.,4.8,,0,0.,4.8,0.,4.8
1981-08-26 09:21:04.790 ,6,0,,0,0.,4.8,0.,4.8,,0,0.,4.8,0.,4.8
1981-08-26 09:21:09.590 ,6,0,,0,0.,4.8,0.,4.8,,0,0.,4.8,0.,4.8
1981-08-26 09:21:14.390 ,7,0,,0,0.,4.8,0.,4.8,,0,0.,4.8,0.,4.8
1981-08-26 09:21:19.190 ,7,0,,0,0.,4.8,0.,4.8,,0,0.,4.8,0.,4.8
1981-08-26 09:21:23.990 ,7,0,,0,0.,4.8,0.,4.8,,0,0.,4.8,0.,4.8
1981-08-26 09:21:28.790 ,7,0,,0,0.,4.8,0.,4.8,,0,0.,4.8,0.,4.8
1981-08-26 09:21:33.590 ,7,0,,0,0.,4.8,0.,4.8,,0,0.,4.8,0.,4.8
1981-08-26 09:21:38.390 ,7,0,,0,0.,4.8,0.,4.8,,0,0.,4.8,0.,4.8
1981-08-26 09:21:43.190 ,7,0,,0,0.,4.8,0.,4.8,,0,0.,4.8,0.,4.8
1981-08-26 09:21:47.990 ,7,0,,0,0.,4.8,0.,4.8,,0,0.,4.8,0.,4.8
1981-08-26 09:21:52.790 ,7,0,,0,0.,4.8,0.,4.8,,0,0.,4.8,0.,4.8
1981-08-26 09:21:57.590 ,7,0,,0,0.,4.8,0.,4.8,,0,0.,4.8,0.,4.8
1981-08-26 09:22:02.390 ,6,0,,0,0.,4.8,0.,4.8,,0,0.,4.8,0.,4.8
1981-08-26 09:22:07.190 ,6,0,,0,0.,4.8,0.,4.8,,0,0.,4.8,0.,4.8
1981-08-26 09:22:11.990 ,6,0,,0,0.,4.8,0.,4.8,,0,0.,4.8,0.,4.8
1981-08-26 09:22:16.790 ,6,0,,0,0.,4.8,0.,4.8,,0,0.,4.8,0.,4.8
1981-08-26 09:22:21.590 ,6,0,,0,0.,4.8,0.,4.8,,0,0.,4.8,0.,4.8
1981-08-26 09:22:26.390 ,5,0,,0,0.,4.8,0.,4.8,,0,0.,4.8,0.,4.8
1981-08-26 09:22:31.190 ,5,0,,0,0.,4.8,0.,4.8,,0,0.,4.8,0.,4.8
1981-08-26 09:22:35.990 ,5,0,,0,0.,4.8,0.,4.8,,0,0.,4.8,0.,4.8
1981-08-26 09:22:40.790 ,5,0,,0,0.,4.8,0.,4.8,,0,0.,4.8,0.,4.8
1981-08-26 09:22:45.590 ,5,0,,0,0.,4.8,0.,4.8,,0,0.,4.8,0.,4.8
1981-08-26 09:22:50.390 ,4,0,,0,0.,4.8,0.,4.8,,0,0.,4.8,0.,4.8
1981-08-26 09:22:55.190 ,4,0,,0,0.,4.8,0.,4.8,,0,0.,4.8,0.,4.8
1981-08-26 09:22:59.990 ,4,0,,0,0.,4.8,0.,4.8,,0,0.,4.8,0.,4.8
1981-08-26 09:23:04.790 ,4,0,,0,0.,4.8,0.,4.8,,0,0.,4.8,0.,4.8
1981-08-26 09:23:09.590 ,4,0,,0,0.,4.8,0.,4.8,,0,0.,4.8,0.,4.8
1981-08-26 09:23:14.390 ,3,0,,0,0.,4.8,0.,4.8,,0,0.,4.8,0.,4.8
1981-08-26 09:23:19.190 ,3,0,,0,0.,4.8,0.,4.8,,0,0.,4.8,0.,4.8
1981-08-26 09:23:23.990 ,3,0,,0,0.,4.8,0.,4.8,,0,0.,4.8,0.,4.8
1981-08-26 09:23:28.790 ,3,0,,0,0.,4.8,0.,4.8,,0,0.,4.8,0.,4.8
1981-08-26 09:23:33.590 ,3,0,,0,0.,4.8,0.,4.8,,0,0.,4.8,0.,4.8
1981-08-26 09:23:38.390 ,2,0,,0,0.,4.8,0.,4.8,,0,0.,4.8,0.,4.8
1981-08-26 09:23:43.190 ,2,0,,0,0.,4.8,0.,4.8,,0,0.,4.8,0.,4.8
1981-08-26 09:23:47.990 ,2,0,,0,0.,4.8,0.,4.8,,0,0.,4.8,0.,4.8
1981-08-26 09:23:52.790 ,2,0,,0,0.,4.8,0.,4.8,,0,0.,4.8,0.,4.8
1981-08-26 09:23:57.590 ,2,0,,0,0.,4.8,0.,4.8,,0,0.,4.8,0.,4.8
1981-08-26 09:24:02.390 ,1,0,,0,0.,4.8,0.,4.8,,0,0.,4.8,0.,4.8
1981-08-26 09:24:07.190 ,1,0,,0,0.,4.8,0.,4.8,,0,0.,4.8,0.,4.8
1981-08-26 09:24:11.990 ,1,0,,0,0.,4.8,0.,4.8,,0,0.,4.8,0.,4.8
1981-08-26 09:24:16.790 ,1,0,,0,0.,4.8,0.,4.8,,0,0.,4.8,0.,4.8
1981-08-26 09:24:21.590 ,1,0,,0,0.,4.8,0.,4.8,,0,0.,4.8,0.,4.8
1981-08-26 09:24:26.390 ,0,0,,0,0.,4.8,0.,4.8,,0,0.,4.8,0.,4.8
1981-08-26 09:24:31.190 ,0,0,,0,0.,4.8,0.,4.8,,0,0.,4.8,0.,4.8
1981-08-26 09:24:35.990 ,0,0,,0,0.,4.8,0.,4.8,,0,0.,4.8,0.,4.8
1981-08-26 09:24:40.790 ,0,0,,0,0.,4.8,0.,4.8,,0,0.,4.8,0.,4.8
1981-08-26 09:24:45.590 ,0,0,,0,0.,4.8,0.,4.8,,0,0.,4.8,0.,4.8
1981-08-26 09:24:50.390 ,0,0,,0,0.,4.8,0.,4.8,,0,0.,4.8,0.,4.8
1981-08-26 09:24:55.190 ,0,0,,0,0.,4.8,0.,4.8,,0,0.,4.8,0.,4.8
1981-08-26 09:24:59.990 ,0,0,,0,0.,4.8,0.,4.8,,0,0.,4.8,0.,4.8
1981-08-26 09:25:04.790 ,0,0,,0,0.,4.8,0.,4.8,,0,0.,4.8,0.,4.8
1981-08-26 09:25:09.590 ,0,0,,0,0.,4.8,0.,4.8,,0,0.,4.8,0.,4.8
1981-08-26 09:25:14.390 ,1,0,,0,0.,4.8,0.,4.8,,0,0.,4.8,0.,4.8
1981-08-26 09:25:19.190 ,1,0,,0,0.,4.8,0.,4.8,,0,0.,4.8,0.,4.8
1981-08-26 09:25:23.990 ,1,0,,0,0.,4.8,0.,4.8,,0,0.,4.8,0.,4.8
1981-08-26 09:25:28.790 ,1,0,,0,0.,4.8,0.,4.8,,0,0.,4.8,0.,4.8
1981-08-26 09:25:33.590 ,1,0,,0,0.,4.8,0.,4.8,,0,0.,4.8,0.,4.8
1981-08-26 09:25:38.390 ,2,0,,0,0.,4.8,0.,4.8,,0,0.,4.8,0.,4.8
1981-08-26 09:25:43.190 ,2,0,,0,0.,4.8,0.,4.8,,0,0.,4.8,0.,4.8
1981-08-26 09:25:47.990 ,2,0,,0,0.,4.8,0.,4.8,,0,0.,4.8,0.,4.8
1981-08-26 09:25:52.790 ,2,0,,0,0.,4.8,0.,4.8,,0,0.,4.8,0.,4.8
1981-08-26 09:25:57.590 ,2,0,,0,0.,4.8,0.,4.8,,0,0.,4.8,0.,4.8
1981-08-26 09:26:02.390 ,3,0,,0,0.,4.8,0.,4.8,,0,0.,4.8,0.,4.8
1981-08-26 09:26:07.190 ,3,0,,0,0.,4.8,0.,4.8,,0,0.,4.8,0.,4.8
1981-08-26 09:26:11.990 ,3,0,,0,0.,4.8,0.,4.8,,0,0.,4.8,0.,4.8
1981-08-26 09:26:16.790 ,3,0,,0,0.,4.8,0.,4.8,,0,0.,4.8,0.,4.8
1981-08-26 09:26:21.590 ,3,0,,0,0.,4.8,0.,4.8,,0,0.,4.8,0.,4.8
1981-08-26 09:26:26.390 ,4,0,,0,0.,4.8,0.,4.8,,0,0.,4.8,0.,4.8
1981-08-26 09:26:31.190 ,4,0,,0,0.,4.8,0.,4.8,,0,0.,4.8,0.,4.8
1981-08-26 09:26:35.990 ,4,0,,0,0.,4.8,0.,4.8,,0,0.,4.8,0.,4.8
1981-08-26 09:26:40.790 ,4,0,,0,0.,4.8,0.,4.8,,0,0.,4.8,0.,4.8
1981-08-26 09:26:45.590 ,4,0,,0,0.,4.8,0.,4.8,,0,0.,4.8,0.,4.8
1981-08-26 09:26:50.390 ,5,0,,0,0.,4.8,0.,4.8,,0,0.,4.8,0.,4.8
1981-08-26 09:26:55.190 ,5,0,,0,0.,4.8,0.,4.8,,0,0.,4.8,0.,4.8
1981-08-26 09:26:59.990 ,5,0,,0,0.,4.8,0.,4.8,,0,0.,4.8,0.,4.8
1981-08-26 09:27:04.790 ,5,0,,0,0.,4.8,0.,4.8,,0,0.,4.8,0.,4.8
1981-08-26 09:27:09.590 ,5,0,,0,0.,4.8,0.,4.8,,0,0.,4.8,0.,4.8
1981-08-26 09:27:14.390 ,6,0,,0,0.,4.8,0.,4.8,,0,0.,4.8,0.,4.8
1981-08-26 09:27:19.190 ,6,0,,0,0.,4.8,0.,4.8,,0,0.,4.8,0.,4.8
1981-08-26 09:27:23.990 ,6,0,,0,0.,4.8,0.,4.8,,0,0.,4.8,0.,4.8
1981-08-26 09:27:28.790 ,6,0,,0,0.,4.8,0.,4.8,,0,0.,4.8,0.,4.8
1981-08-26 09:27:33.590 ,6,0,,0,0.,4.8,0.,4.8,,0,0.,4.8,0.,4.8
1981-08-26 09:27:38.390 ,7,0,,0,0.,4.8,0.,4.8,,0,0.,4.8,0.,4.8
1981-08-26 09:27:43.190 ,7,0,,0,0.,4.8,0.,4.8,,0,0.,4.8,0.,4.8
1981-08-26 09:27:47.990 ,7,0,,0,0.,4.8,0.,4.8,,0,0.,4.8,0.,4.8
1981-08-26 09:27:52.790 ,7,0,,0,0.,4.8,0.,4.8,,0,0.,4.8,0.,4.8
1981-08-26 09:27:57.590 ,7,0,,0,0.,4.8,0.,4.8,,0,0.,4.8,0.,4.8
1981-08-26 09:28:50.390 ,0,0,,0,0.,4.8,0.,4.8,,0,0.,4.8,0.,4.8
1981-08-26 09:28:55.190 ,0,0,,0,0.,4.8,0.,4.8,,0,0.,4.8,0.,4.8
1981-08-26 09:28:59.990 ,0,0,,0,0.,4.8,0.,4.8,,0,0.,4.8,0.,4.8
1981-08-26 09:29:04.790 ,0,0,,0,0.,4.8,0.,4.8,,0,0.,4.8,0.,4.8
1981-08-26 09:29:09.590 ,0,0,,0,0.,4.8,0.,4.8,,0,0.,4.8,0.,4.8
1981-08-26 09:29:14.390 ,4,0,,0,0.,4.8,0.,4.8,,0,0.,4.8,0.,4.8
1981-08-26 09:29:19.190 ,4,0,,0,0.,4.8,0.,4.8,,0,0.,4.8,0.,4.8
1981-08-26 09:29:23.990 ,4,0,,0,0.,4.8,0.,4.8,,0,0.,4.8,0.,4.8
1981-08-26 09:29:28.790 ,4,0,,0,0.,4.8,0.,4.8,,0,0.,4.8,0.,4.8
1981-08-26 09:29:33.590 ,4,0,,0,0.,4.8,0.,4.8,,0,0.,4.8,0.,4.8
1981-08-26 09:29:38.390 ,3,0,,0,0.,4.8,0.,4.8,,0,0.,4.8,0.,4.8
1981-08-26 09:29:43.190 ,3,0,,0,0.,4.8,0.,4.8,,0,0.,4.8,0.,4.8
1981-08-26 09:29:47.990 ,3,0,,0,0.,4.8,0.,4.8,,0,0.,4.8,0.,4.8
1981-08-26 09:29:52.790 ,3,0,,0,0.,4.8,0.,4.8,,0,0.,4.8,0.,4.8
1981-08-26 09:29:57.590 ,3,0,,0,0.,4.8,0.,4.8,,0,0.,4.8,0.,4.8
1981-08-26 09:30:02.390 ,2,0,,0,0.,4.8,0.,4.8,,0,0.,4.8,0.,4.8
1981-08-26 09:30:07.190 ,2,0,,0,0.,4.8,0.,4.8,,0,0.,4.8,0.,4.8
1981-08-26 09:30:11.990 ,2,0,,0,0.,4.8,0.,4.8,,0,0.,4.8,0.,4.8
1981-08-26 09:30:16.790 ,2,0,,0,0.,4.8,0.,4.8,,0,0.,4.8,0.,4.8
1981-08-26 09:30:21.590 ,2,0,,0,0.,4.8,0.,4.8,,0,0.,4.8,0.,4.8
1981-08-26 09:30:26.390 ,1,0,,0,0.,4.8,0.,4.8,,0,0.,4.8,0.,4.8
1981-08-26 09:30:31.190 ,1,0,,0,0.,4.8,0.,4.8,,0,0.,4.8,0.,4.8
1981-08-26 09:30:35.990 ,1,0,,0,0.,4.8,0.,4.8,,0,0.,4.8,0.,4.8
1981-08-26 09:30:40.790 ,1,0,,0,0.,4.8,0.,4.8,,0,0.,4.8,0.,4.8
1981-08-26 09:30:45.590 ,1,0,,0,0.,4.8,0.,4.8,,0,0.,4.8,0.,4.8
1981-08-26 09:30:50.390 ,0,0,,0,0.,4.8,0.,4.8,,0,0.,4.8,0.,4.8
1981-08-26 09:30:55.190 ,0,0,,0,0.,4.8,0.,4.8,,0,0.,4.8,0.,4.8
1981-08-26 09:30:59.990 ,0,0,,0,0.,4.8,0.,4.8,,0,0.,4.8,0.,4.8
1981-08-26 09:31:04.790 ,0,0,,0,0.,4.8,0.,4.8,,0,0.,4.8,0.,4.8
1981-08-26 09:31:09.590 ,0,0,,0,0.,4.8,0.,4.8,,0,0.,4.8,0.,4.8
1981-08-26 09:31:14.390 ,0,0,,0,0.,4.8,0.,4.8,,0,0.,4.8,0.,4.8
1981-08-26 09:31:19.190 ,0,0,,0,0.,4.8,0.,4.8,,0,0.,4.8,0.,4.8
1981-08-26 09:31:23.990 ,0,0,,0,0.,4.8,0.,4.8,,0,0.,4.8,0.,4.8
1981-08-26 09:31:28.790 ,0,0,,0,0.,4.8,0.,4.8,,0,0.,4.8,0.,4.8
1981-08-26 09:31:33.590 ,0,0,,0,0.,4.8,0.,4.8,,0,0.,4.8,0.,4.8
1981-08-26 09:31:38.390 ,1,0,,0,0.,4.8,0.,4.8,,0,0.,4.8,0.,4.8
1981-08-26 09:31:43.190 ,1,0,,0,0.,4.8,0.,4.8,,0,0.,4.8,0.,4.8
1981-08-26 09:31:47.990 ,1,0,,0,0.,4.8,0.,4.8,,0,0.,4.8,0.,4.8
1981-08-26 09:31:52.790 ,1,0,,0,0.,4.8,0.,4.8,,0,0.,4.8,0.,4.8
1981-08-26 09:31:57.590 ,1,0,,0,0.,4.8,0.,4.8,,0,0.,4.8,0.,4.8